AAL1325 KCLT-KGPI

Flight info

Callsign AAL1325
Flight time N/A
Altitude 30000
Route BOBZY5 BOBZY BRAYN REWET GHATS TTH JOT/N0449F320 J30 ODI J36 FAR HIDEL/N0447F340 KATEN FCA
Aircraft MD83/M-SDFGIRWY/C

Departure

Time N/A
Airport Charlotte Douglas International Airport (KCLT)

Arrival

Time 2026-04-22 01:54
Airport Glacier Park International Airport (KGPI)
Time Latitude Longitude Altitude Speed Heading
2026-04-22 00:30 48.50370 -103.39866 30790 ft 414 kts 286°
2026-04-22 00:30 48.51218 -103.44005 31015 ft 413 kts 286°
2026-04-22 00:30 48.52066 -103.48141 31268 ft 412 kts 286°
2026-04-22 00:31 48.52911 -103.52271 31502 ft 412 kts 286°
2026-04-22 00:31 48.53754 -103.56393 31740 ft 411 kts 286°
2026-04-22 00:31 48.54591 -103.60512 31970 ft 410 kts 285°
2026-04-22 00:31 48.55412 -103.64629 32176 ft 410 kts 285°
2026-04-22 00:32 48.56227 -103.68751 32430 ft 409 kts 285°
2026-04-22 00:32 48.57038 -103.72858 32659 ft 408 kts 285°
2026-04-22 00:32 48.57851 -103.76962 32878 ft 408 kts 285°
2026-04-22 00:32 48.58665 -103.81062 33110 ft 407 kts 285°
2026-04-22 00:33 48.59478 -103.85148 33348 ft 406 kts 285°
2026-04-22 00:33 48.60291 -103.89233 33587 ft 406 kts 285°
2026-04-22 00:33 48.61104 -103.93311 33825 ft 405 kts 285°
2026-04-22 00:33 48.61914 -103.97381 34039 ft 404 kts 285°
2026-04-22 00:34 48.62718 -104.01419 34274 ft 402 kts 285°
2026-04-22 00:34 48.63527 -104.05481 34478 ft 401 kts 285°
2026-04-22 00:34 48.64329 -104.09513 34670 ft 400 kts 285°
2026-04-22 00:34 48.65130 -104.13543 34875 ft 399 kts 285°
2026-04-22 00:35 48.65925 -104.17552 35055 ft 398 kts 285°
2026-04-22 00:35 48.66712 -104.21564 35224 ft 397 kts 284°
2026-04-22 00:35 48.67484 -104.25567 35399 ft 396 kts 284°
2026-04-22 00:35 48.68241 -104.29519 35547 ft 396 kts 284°
2026-04-22 00:36 48.69006 -104.33511 35689 ft 395 kts 284°
2026-04-22 00:36 48.70546 -104.41522 35783 ft 396 kts 284°
2026-04-22 00:37 48.72086 -104.49509 35799 ft 394 kts 284°
2026-04-22 00:37 48.73624 -104.57466 35806 ft 393 kts 284°
2026-04-22 00:38 48.75157 -104.65414 35807 ft 393 kts 284°
2026-04-22 00:38 48.76690 -104.73370 35808 ft 393 kts 284°
2026-04-22 00:39 48.78215 -104.81329 35810 ft 393 kts 284°
2026-04-22 00:39 48.79701 -104.89302 35811 ft 393 kts 283°
2026-04-22 00:40 48.81184 -104.97285 35813 ft 393 kts 283°
2026-04-22 00:40 48.82674 -105.05266 35818 ft 393 kts 283°
2026-04-22 00:41 48.84166 -105.13243 35814 ft 393 kts 283°
2026-04-22 00:41 48.85649 -105.21171 35813 ft 393 kts 283°
2026-04-22 00:42 48.87141 -105.29155 35814 ft 393 kts 283°
2026-04-22 00:42 48.88631 -105.37145 35818 ft 393 kts 283°
2026-04-22 00:43 48.90100 -105.45143 35812 ft 393 kts 283°
2026-04-22 00:43 48.91538 -105.53149 35811 ft 393 kts 283°
2026-04-22 00:44 48.92980 -105.61164 35815 ft 393 kts 283°
2026-04-22 00:44 48.94429 -105.69178 35816 ft 393 kts 283°
2026-04-22 00:45 48.95880 -105.77190 35818 ft 393 kts 283°
2026-04-22 00:45 48.97330 -105.85202 35822 ft 393 kts 282°
2026-04-22 00:46 48.98780 -105.93227 35825 ft 393 kts 283°
2026-04-22 00:46 48.99833 -106.01326 35838 ft 388 kts 267°
2026-04-22 00:47 48.99462 -106.09544 35838 ft 390 kts 264°
2026-04-22 00:47 48.98940 -106.17747 35825 ft 389 kts 263°
2026-04-22 00:48 48.98390 -106.25889 35826 ft 389 kts 264°
2026-04-22 00:48 48.97866 -106.34078 35822 ft 389 kts 264°
2026-04-22 00:49 48.97361 -106.42273 35818 ft 389 kts 264°
2026-04-22 00:49 48.96862 -106.50465 35818 ft 389 kts 264°
2026-04-22 00:50 48.96361 -106.58661 35812 ft 389 kts 264°
2026-04-22 00:50 48.95852 -106.66855 35812 ft 389 kts 263°
2026-04-22 00:51 48.95298 -106.75032 35810 ft 389 kts 263°
2026-04-22 00:51 48.94735 -106.83212 35806 ft 389 kts 263°
2026-04-22 00:52 48.94180 -106.91383 35803 ft 388 kts 263°
2026-04-22 00:52 48.93630 -106.99557 35803 ft 389 kts 263°
2026-04-22 00:53 48.93082 -107.07731 35795 ft 388 kts 263°
2026-04-22 00:53 48.92532 -107.15892 35796 ft 388 kts 263°
2026-04-22 00:54 48.91982 -107.24060 35794 ft 388 kts 263°
2026-04-22 00:54 48.91416 -107.32221 35790 ft 388 kts 262°
2026-04-22 00:55 48.90809 -107.40372 35786 ft 388 kts 262°
2026-04-22 00:55 48.89903 -107.52611 35782 ft 389 kts 262°
2026-04-22 00:56 48.89306 -107.60775 35782 ft 389 kts 262°
2026-04-22 00:56 48.88716 -107.68882 35776 ft 389 kts 262°
2026-04-22 00:57 48.88119 -107.77052 35775 ft 389 kts 262°
2026-04-22 00:57 48.87522 -107.85222 35772 ft 389 kts 262°
2026-04-22 00:58 48.86916 -107.93385 35767 ft 389 kts 261°
2026-04-22 00:58 48.86267 -108.01553 35770 ft 390 kts 261°
2026-04-22 00:59 48.85612 -108.09722 35771 ft 390 kts 261°
2026-04-22 00:59 48.84965 -108.17891 35767 ft 390 kts 261°
2026-04-22 01:00 48.84322 -108.26068 35762 ft 390 kts 261°
2026-04-22 01:00 48.83680 -108.34240 35766 ft 390 kts 261°
2026-04-22 01:01 48.83039 -108.42407 35761 ft 390 kts 261°
2026-04-22 01:01 48.82402 -108.50509 35760 ft 389 kts 261°
2026-04-22 01:02 48.81731 -108.58720 35756 ft 389 kts 261°
2026-04-22 01:02 48.81035 -108.66810 35756 ft 389 kts 260°
2026-04-22 01:03 48.80339 -108.74958 35752 ft 390 kts 260°
2026-04-22 01:03 48.79650 -108.83103 35752 ft 389 kts 260°
2026-04-22 01:04 48.78963 -108.91255 35752 ft 390 kts 260°
2026-04-22 01:04 48.78276 -108.99412 35746 ft 390 kts 260°
2026-04-22 01:05 48.77589 -109.07559 35744 ft 390 kts 260°
2026-04-22 01:05 48.76899 -109.15713 35746 ft 390 kts 260°
2026-04-22 01:06 48.76170 -109.23865 35730 ft 390 kts 259°
2026-04-22 01:06 48.75424 -109.32008 35730 ft 390 kts 259°
2026-04-22 01:07 48.74685 -109.40152 35731 ft 390 kts 259°
2026-04-22 01:07 48.74073 -109.46923 35725 ft 390 kts 259°
2026-04-22 01:08 48.73341 -109.55064 35727 ft 390 kts 259°
2026-04-22 01:08 48.72609 -109.63211 35742 ft 390 kts 259°
2026-04-22 01:09 48.71757 -109.72673 35737 ft 390 kts 259°
2026-04-22 01:09 48.71138 -109.79492 35731 ft 390 kts 259°
2026-04-22 01:10 48.70358 -109.87623 35726 ft 390 kts 259°
2026-04-22 01:10 48.69569 -109.95751 35729 ft 391 kts 259°
2026-04-22 01:11 48.68783 -110.03889 35731 ft 391 kts 259°
2026-04-22 01:11 48.68005 -110.12029 35727 ft 391 kts 259°
2026-04-22 01:12 48.67225 -110.20173 35721 ft 391 kts 259°
2026-04-22 01:12 48.66453 -110.28260 35713 ft 391 kts 258°
2026-04-22 01:13 48.65672 -110.36413 35717 ft 392 kts 259°
2026-04-22 01:13 48.64873 -110.44575 35712 ft 392 kts 258°
2026-04-22 01:14 48.64044 -110.52664 35716 ft 386 kts 258°
2026-04-22 01:14 48.63229 -110.60612 35712 ft 380 kts 258°
2026-04-22 01:15 48.62426 -110.68489 35718 ft 380 kts 258°
2026-04-22 01:15 48.61621 -110.76401 35716 ft 382 kts 258°
2026-04-22 01:16 48.60814 -110.84360 35726 ft 384 kts 258°
2026-04-22 01:16 48.60007 -110.92331 35727 ft 384 kts 258°
2026-04-22 01:17 48.59198 -111.00302 35720 ft 384 kts 258°
2026-04-22 01:17 48.58362 -111.08274 35722 ft 384 kts 257°
2026-04-22 01:18 48.57498 -111.16238 35721 ft 384 kts 257°
2026-04-22 01:18 48.56640 -111.24151 35720 ft 385 kts 257°
2026-04-22 01:19 48.55782 -111.32137 35722 ft 386 kts 257°
2026-04-22 01:19 48.54926 -111.40134 35726 ft 386 kts 257°
2026-04-22 01:20 48.54070 -111.48128 35732 ft 386 kts 257°
2026-04-22 01:20 48.53213 -111.56133 35740 ft 387 kts 257°
2026-04-22 01:21 48.52353 -111.64140 35749 ft 387 kts 257°
2026-04-22 01:21 48.51456 -111.72145 35756 ft 387 kts 256°
2026-04-22 01:22 48.50542 -111.80141 35762 ft 387 kts 256°
2026-04-22 01:22 48.49630 -111.88146 35760 ft 387 kts 256°
2026-04-22 01:23 48.48726 -111.96150 35759 ft 387 kts 256°
2026-04-22 01:23 48.47824 -112.04153 35746 ft 388 kts 256°
2026-04-22 01:24 48.46919 -112.12163 35735 ft 388 kts 256°
2026-04-22 01:24 48.46015 -112.20173 35720 ft 388 kts 256°
2026-04-22 01:25 48.45105 -112.28178 35729 ft 387 kts 255°
2026-04-22 01:25 48.44154 -112.36160 35728 ft 387 kts 255°
2026-04-22 01:26 48.43195 -112.44137 35725 ft 387 kts 255°
2026-04-22 01:26 48.42245 -112.52111 35718 ft 387 kts 255°
2026-04-22 01:27 48.41306 -112.60026 35711 ft 387 kts 255°
2026-04-22 01:27 48.40361 -112.67995 35705 ft 387 kts 255°
2026-04-22 01:28 48.39416 -112.75963 35703 ft 387 kts 255°
2026-04-22 01:28 48.38470 -112.83933 35700 ft 387 kts 255°
2026-04-22 01:29 48.37506 -112.91906 35706 ft 387 kts 254°
2026-04-22 01:29 48.36532 -112.99711 35264 ft 374 kts 254°
2026-04-22 01:30 48.36043 -113.03578 34511 ft 378 kts 254°
2026-04-22 01:30 48.35549 -113.07474 33804 ft 381 kts 254°
2026-04-22 01:30 48.35052 -113.11410 33020 ft 384 kts 254°
2026-04-22 01:30 48.34557 -113.15360 32238 ft 386 kts 255°
2026-04-22 01:31 48.34061 -113.19339 31488 ft 388 kts 255°
2026-04-22 01:31 48.33565 -113.23329 30731 ft 389 kts 255°
2026-04-22 01:31 48.33067 -113.27337 30000 ft 391 kts 255°
2026-04-22 01:31 48.32570 -113.31356 29214 ft 392 kts 255°
2026-04-22 01:32 48.32071 -113.35383 28388 ft 392 kts 255°
2026-04-22 01:32 48.31572 -113.39416 27588 ft 393 kts 255°
2026-04-22 01:32 48.31069 -113.43452 26812 ft 394 kts 255°
2026-04-22 01:32 48.30564 -113.47500 26055 ft 394 kts 255°
2026-04-22 01:33 48.30061 -113.51492 25325 ft 394 kts 255°
2026-04-22 01:33 48.29533 -113.55531 24619 ft 395 kts 255°
2026-04-22 01:33 48.28999 -113.59578 23922 ft 395 kts 255°
2026-04-22 01:33 48.28465 -113.63625 23212 ft 395 kts 255°
2026-04-22 01:34 48.27935 -113.67673 22374 ft 395 kts 255°
2026-04-22 01:34 48.27409 -113.71718 21572 ft 395 kts 255°
2026-04-22 01:34 48.26882 -113.75766 20809 ft 395 kts 256°
2026-04-22 01:34 48.26355 -113.79820 20061 ft 396 kts 255°
2026-04-22 01:35 48.25831 -113.83875 19328 ft 396 kts 255°
2026-04-22 01:35 48.25305 -113.87939 18609 ft 397 kts 255°
2026-04-22 01:35 48.24776 -113.92010 17910 ft 398 kts 255°
2026-04-22 01:35 48.24243 -113.96090 17132 ft 399 kts 255°
2026-04-22 01:36 48.23708 -114.00171 16355 ft 399 kts 255°
2026-04-22 01:36 48.23174 -114.04244 15608 ft 398 kts 256°
2026-04-22 01:36 48.22641 -114.08321 14857 ft 397 kts 256°
2026-04-22 01:36 48.22139 -114.12392 14152 ft 397 kts 258°
2026-04-22 01:37 48.21590 -114.16428 13459 ft 394 kts 249°
2026-04-22 01:37 48.20330 -114.20018 12820 ft 385 kts 232°
2026-04-22 01:37 48.18703 -114.23125 12457 ft 374 kts 229°
2026-04-22 01:37 48.17069 -114.26090 12077 ft 365 kts 229°
2026-04-22 01:38 48.15484 -114.28997 11706 ft 357 kts 229°
2026-04-22 01:38 48.13945 -114.31863 11328 ft 350 kts 230°
2026-04-22 01:38 48.12450 -114.34689 10956 ft 343 kts 230°
2026-04-22 01:38 48.10998 -114.37477 10574 ft 336 kts 231°
2026-04-22 01:39 48.09604 -114.40182 10275 ft 329 kts 231°
2026-04-22 01:39 48.08224 -114.42858 10008 ft 321 kts 231°
2026-04-22 01:39 48.06871 -114.45470 9729 ft 314 kts 231°
2026-04-22 01:39 48.05550 -114.48029 9476 ft 308 kts 231°
2026-04-22 01:40 48.04245 -114.50535 9230 ft 302 kts 231°
2026-04-22 01:40 48.02992 -114.52962 9086 ft 288 kts 231°
2026-04-22 01:40 48.01795 -114.55269 9026 ft 272 kts 231°
2026-04-22 01:40 48.00669 -114.57432 8974 ft 257 kts 233°
2026-04-22 01:41 47.99893 -114.59787 8964 ft 253 kts 251°
2026-04-22 01:41 47.99388 -114.62312 8989 ft 255 kts 253°
2026-04-22 01:41 47.98904 -114.64858 8987 ft 253 kts 253°
2026-04-22 01:41 47.98420 -114.67401 8991 ft 256 kts 253°
2026-04-22 01:42 47.97930 -114.69949 8982 ft 255 kts 253°
2026-04-22 01:42 47.97444 -114.72502 8978 ft 256 kts 253°
2026-04-22 01:42 47.96963 -114.75057 8970 ft 256 kts 253°
2026-04-22 01:42 47.96480 -114.77612 8953 ft 256 kts 253°
2026-04-22 01:43 47.95696 -114.79958 8949 ft 254 kts 226°
2026-04-22 01:43 47.94229 -114.81360 8965 ft 253 kts 194°
2026-04-22 01:43 47.92486 -114.81400 8969 ft 254 kts 163°
2026-04-22 01:43 47.90973 -114.80096 8973 ft 255 kts 133°
2026-04-22 01:44 47.90032 -114.77858 8983 ft 257 kts 114°
2026-04-22 01:44 47.89428 -114.75350 8970 ft 258 kts 104°
2026-04-22 01:44 47.89210 -114.72702 8961 ft 258 kts 88°
2026-04-22 01:44 47.89553 -114.70090 8958 ft 259 kts 68°
2026-04-22 01:45 47.90471 -114.67793 8960 ft 260 kts 51°
2026-04-22 01:45 47.91731 -114.65862 8963 ft 261 kts 41°
2026-04-22 01:45 47.93153 -114.64178 8959 ft 261 kts 36°
2026-04-22 01:45 47.94628 -114.62664 8961 ft 261 kts 33°
2026-04-22 01:46 47.96163 -114.61205 8961 ft 262 kts 32°
2026-04-22 01:46 47.97708 -114.59772 8956 ft 261 kts 32°
2026-04-22 01:46 47.99253 -114.58344 8952 ft 261 kts 32°
2026-04-22 01:46 48.00794 -114.56903 8956 ft 261 kts 32°
2026-04-22 01:47 48.02434 -114.55765 8955 ft 262 kts 10°
2026-04-22 01:47 48.04253 -114.55734 8893 ft 262 kts 352°
2026-04-22 01:47 48.06062 -114.56139 8791 ft 263 kts 351°
2026-04-22 01:47 48.07893 -114.56518 8658 ft 262 kts 357°
2026-04-22 01:48 48.09658 -114.56039 8551 ft 258 kts 27°
2026-04-22 01:48 48.10977 -114.54330 8389 ft 258 kts 58°
2026-04-22 01:48 48.11541 -114.51838 8193 ft 254 kts 89°
2026-04-22 01:48 48.11408 -114.49197 7771 ft 253 kts 92°
2026-04-22 01:49 48.11822 -114.46718 7280 ft 244 kts 58°
2026-04-22 01:49 48.12892 -114.44874 6813 ft 228 kts 43°
2026-04-22 01:49 48.14034 -114.43390 6611 ft 205 kts 38°
2026-04-22 01:49 48.15128 -114.42141 6385 ft 193 kts 36°
2026-04-22 01:50 48.16200 -114.41006 6155 ft 185 kts 34°
2026-04-22 01:50 48.17236 -114.39915 5966 ft 177 kts 34°
2026-04-22 01:50 48.18237 -114.38899 5722 ft 175 kts 33°
2026-04-22 01:50 48.19234 -114.37857 5488 ft 176 kts 36°
2026-04-22 01:51 48.20234 -114.36790 5247 ft 177 kts 33°
2026-04-22 01:51 48.21250 -114.35742 5005 ft 176 kts 34°
2026-04-22 01:51 48.22242 -114.34712 4810 ft 174 kts 34°
2026-04-22 01:51 48.23244 -114.33677 4593 ft 176 kts 34°
2026-04-22 01:52 48.24268 -114.32612 4374 ft 180 kts 34°
2026-04-22 01:52 48.25293 -114.31546 4099 ft 175 kts 35°
2026-04-22 01:52 48.26239 -114.30553 3806 ft 160 kts 34°
2026-04-22 01:52 48.27130 -114.29624 3575 ft 153 kts 35°
2026-04-22 01:53 48.28003 -114.28709 3466 ft 155 kts 33°
2026-04-22 01:53 48.28901 -114.27791 3273 ft 157 kts 34°
2026-04-22 01:53 48.29801 -114.26851 3025 ft 158 kts 35°
2026-04-22 01:53 48.30653 -114.25962 2969 ft 137 kts 35°
2026-04-22 01:54 48.31298 -114.25290 2971 ft 89 kts 34°
2026-04-22 01:54 48.31696 -114.24873 2968 ft 42 kts 35°
2026-04-22 01:54 48.31854 -114.24703 2970 ft 17 kts 41°
2026-04-22 01:54 48.31846 -114.24566 2971 ft 14 kts 141°
2026-04-22 01:55 48.31767 -114.24589 2971 ft 12 kts 213°
2026-04-22 01:55 48.31690 -114.24671 2968 ft 15 kts 214°
2026-04-22 01:55 48.31605 -114.24757 2968 ft 15 kts 214°
2026-04-22 01:55 48.31518 -114.24847 2956 ft 16 kts 216°
2026-04-22 01:56 48.31416 -114.24956 2968 ft 22 kts 214°
2026-04-22 01:56 48.31261 -114.25117 2971 ft 30 kts 214°
2026-04-22 01:56 48.31096 -114.25283 2973 ft 27 kts 216°
2026-04-22 01:56 48.30951 -114.25439 2971 ft 24 kts 214°
2026-04-22 01:57 48.30853 -114.25535 2970 ft 11 kts 198°
2026-04-22 01:57 48.30802 -114.25491 2977 ft 7 kts 118°
2026-04-22 01:57 48.30789 -114.25455 2978 ft 3 kts 118°
2026-04-22 01:57 48.30770 -114.25409 2978 ft 6 kts 125°
2026-04-22 01:58 48.30758 -114.25382 2978 ft 0 kts 124°